[[{"header":{"parameterUnit":"m.s-1","parameterCategory":1,"la1":30.2991,"la2":30.254,"lo1":-89.0895,"lo2":-89.0444,"dy":0.0017,"dx":0.0017,"nx":28,"ny":28,"refTime":"2025-03-17T09:00:00:Z","depth":0,"parameterNumber":2,"parameterNumberName":"U-component_of_WINDS"},"data":[0,0,0,0,0,0,0,0,0,0,0,0,0,0,0,0,0,0,0,0,0,0,0,0,0,0,0,0,0,0,0,0,0,0,0,0,0,0,0,0,0,0,0,0,0,0,0,0,0,0,0,0,0,0,0,0,0,0,2.2554,2.2554,0,2.2561,2.2561,2.2561,2.2501,2.2499,2.2497,2.2496,2.2503,2.2505,2.2507,0,0,0,0,0,0,0,0,0,0,0,0,0,2.2487,2.2489,2.2554,2.2554,2.2554,2.2561,2.2561,2.2561,2.2501,2.2499,2.2497,2.2495,2.2503,2.2505,2.2507,0,0,0,0,0,0,0,0,0,0,0,0,0,2.2508,2.249,2.2554,2.2525,2.2522,2.2561,2.2561,2.2562,2.2501,2.2499,2.2496,2.2494,2.2502,2.2505,2.2507,2.2575,0,0,2.2515,2.2517,0,0,0,0,0,0,0,0,2.2507,2.251,2.2529,2.2527,2.2524,2.2527,2.2541,2.2566,2.2502,2.2509,2.2496,2.2493,2.2513,2.2515,2.2522,2.2575,2.2575,2.2516,2.2517,2.2518,2.2519,0,0,0,0,0,0,0,2.2505,2.251,2.2557,2.2529,2.2526,2.2511,2.2512,2.2545,2.2526,2.2508,2.2504,2.2506,2.2512,2.252,2.2522,2.2575,2.2516,2.2518,2.252,2.2521,2.2685,2.2688,0,0,0,0,0,0,2.2508,2.2509,2.2556,2.2557,2.2509,2.2515,2.2515,2.2529,2.2525,2.2522,2.2508,2.2503,2.2516,2.2519,2.2522,2.2601,2.2518,2.2521,2.2522,2.2682,2.2686,2.2689,0,0,0,0,0,0,2.2507,2.2513,2.2556,2.2532,2.2536,2.2519,2.2535,2.253,2.2538,2.2525,2.2521,2.252,2.2514,2.2518,2.2562,2.26,2.2522,2.2525,2.2679,2.2683,2.2687,2.276,0,0,0,0,0,0,2.2505,2.2513,2.2538,2.2533,2.2538,2.2596,2.2537,2.2532,2.2543,2.2537,2.2535,2.2532,2.2513,2.2559,2.2565,2.2603,2.2527,2.2676,2.2681,2.2686,2.2754,2.2766,2.2776,0,0,0,0,0,2.2503,2.2558,2.2539,2.2545,2.2569,2.2599,2.2602,2.2578,2.2546,2.2572,2.2563,2.2532,2.2595,2.2564,2.257,2.2609,2.2673,2.268,2.2686,2.2749,2.2763,2.2776,0,0,0,0,0,0,2.2567,2.2556,2.2536,2.2591,2.2596,2.2588,2.2619,2.2594,2.2609,2.2602,2.2573,2.2573,2.2622,2.262,2.2585,2.2675,2.2629,2.2636,2.2674,2.2688,2.2699,2.2698,2.2529,0,0,0,0,0,2.2588,2.2613,2.2602,2.2651,2.2655,2.2637,2.2649,2.2631,2.2636,2.2638,2.2632,2.2638,2.2659,2.2673,2.2692,2.2753,2.2752,2.2784,2.2795,2.2804,2.2811,2.2844,2.2858,2.2709,2.2709,2.2709,0,0,2.263,2.2627,2.2645,2.2664,2.2666,2.2693,2.2639,2.267,2.269,2.2642,2.2684,2.268,2.2684,2.2738,2.2761,2.2738,2.2852,2.2812,2.2819,2.2821,2.2852,2.2866,2.2879,2.2713,2.2713,2.2712,0,0,2.2721,2.2722,2.2763,2.2767,2.2771,2.2759,2.2769,2.2766,2.2762,2.2803,2.2768,2.2791,2.2828,2.2833,2.284,2.2936,2.2908,2.2942,2.3,2.3033,2.3045,2.3055,2.3089,2.3102,2.295,2.295,2.295,0,2.2774,2.2813,2.2788,2.2821,2.2831,2.279,2.2832,2.2836,2.2846,2.2854,2.2828,2.2874,2.2874,2.2928,2.2952,2.2959,2.297,2.2942,2.3045,2.3055,2.3064,2.3097,2.311,2.2954,2.2953,2.2953,2.2953,0,2.2877,2.2905,2.2938,2.295,2.2963,2.3001,2.2982,2.2998,2.298,2.2971,2.3014,2.3013,2.3031,2.3042,2.3024,2.3095,2.308,2.305,2.3003,2.3083,2.3113,2.3125,2.296,2.2959,2.2957,2.2956,0,0,2.3008,2.3006,2.3019,2.3024,2.3026,2.3047,2.3083,2.3102,2.3117,2.3126,2.3156,2.3189,2.3161,2.317,2.3152,2.318,2.3257,2.3147,2.3146,2.3167,2.3335,2.3358,2.3373,2.3238,2.3241,2.3242,2.3335,0,2.3098,2.3159,2.3138,2.3201,2.3227,2.3189,2.322,2.3225,2.3218,2.324,2.3231,2.3256,2.3217,2.3222,2.3249,2.3242,2.329,2.3235,2.3266,2.3268,2.3266,2.3388,2.3412,2.3499,2.3346,2.3348,2.335,0,2.321,2.3224,2.3289,2.3288,2.3298,2.3327,2.3342,2.3363,2.3369,2.3361,2.3372,2.3348,2.3384,2.3338,2.3387,2.335,2.3362,2.3361,2.3363,2.3365,2.3313,2.3394,2.3526,2.354,2.3368,2.3367,2.3365,0,2.3299,2.3334,2.3378,2.3384,2.3383,2.3405,2.3406,2.3408,2.3421,2.3435,2.3443,2.3461,2.3471,2.3485,2.3467,2.3435,2.352,2.3472,2.3515,2.3516,2.3534,2.3533,2.3671,2.3542,2.3542,2.3542,2.3542,0,2.3401,2.3442,2.3418,2.3445,2.3491,2.3467,2.3513,2.351,2.3513,2.3539,2.3508,2.3533,2.3508,2.3531,2.3517,2.3561,2.3565,2.3561,2.3557,2.3564,2.3564,2.3571,2.3564,2.3545,2.3545,2.3544,2.3543,0,2.3508,2.3493,2.3539,2.3536,2.3536,2.357,2.3567,2.3592,2.3583,2.3617,2.3623,2.3609,2.3635,2.3619,2.3645,2.3636,2.3693,2.368,2.3691,2.3688,2.3732,2.3729,2.3879,2.3898,2.3757,2.3758,2.3759,0,2.3574,2.3605,2.3605,2.3621,2.3624,2.3649,2.3662,2.364,2.3655,2.3664,2.3689,2.3712,2.3729,2.3772,2.3765,2.3785,2.3772,2.3824,2.3775,2.3782,2.3774,2.3772,2.3775,2.3834,2.3835,2.3837,2.3838,0,2.3693,2.3684,2.3704,2.3722,2.3739,2.3752,2.3763,2.3777,2.3755,2.3774,2.38,2.3813,2.384,2.3864,2.3881,2.3882,2.3857,2.3853,2.3864,2.3872,2.3877,2.3875,2.3718,2.385,2.3848,2.3848,2.3847,2.3846,2.3781,2.3808,2.3812,2.3836,2.3842,2.3853,2.3877,2.3871,2.3893,2.3913,2.3899,2.393,2.3936,2.3956,2.3961,2.3986,2.3965,2.3981,2.3985,2.3989,2.3996,2.3874,2.3989,2.3988,2.3988,2.3987,2.3987,0,2.3898,2.39,2.3922,2.3938,2.3957,2.3932,2.3943,2.396,2.3988,2.3996,2.4014,2.4045,2.4068,2.4063,2.4084,2.4104,2.4093,2.4111,2.4109,2.411,2.4013,2.4001,2.4119,2.4119,2.4119,2.4119,2.4119,2.4119,2.3962,2.4005,2.3998,2.4045,2.4046,2.4076,2.4085,2.4095,2.4101,2.4137,2.4156,2.4153,2.4156,2.4177,2.4197,2.4195,2.4205,2.4226,2.422,2.413,2.4117,2.4104,2.4093,2.4229,2.4229,2.4315,2.4316,2.4317]},{"header":{"parameterUnit":"m.s-1","parameterCategory":1,"la1":30.2991,"la2":30.254,"lo1":-89.0895,"lo2":-89.0444,"dy":0.0017,"dx":0.0017,"nx":28,"ny":28,"refTime":"2025-03-17T09:00:00:Z","depth":0,"parameterNumber":3,"parameterNumberName":"V-component_of_WINDS"},"data":[0,0,0,0,0,0,0,0,0,0,0,0,0,0,0,0,0,0,0,0,0,0,0,0,0,0,0,0,0,0,0,0,0,0,0,0,0,0,0,0,0,0,0,0,0,0,0,0,0,0,0,0,0,0,0,0,0,0,-4.7616,-4.7619,0,-4.7855,-4.7858,-4.786,-4.7822,-4.7818,-4.7814,-4.781,-4.8056,-4.8066,-4.8077,0,0,0,0,0,0,0,0,0,0,0,0,0,-4.7128,-4.7137,-4.7616,-4.7619,-4.7622,-4.7855,-4.7858,-4.7861,-4.7823,-4.7818,-4.7813,-4.7808,-4.8053,-4.8065,-4.8078,0,0,0,0,0,0,0,0,0,0,0,0,0,-4.7351,-4.714,-4.7615,-4.7631,-4.7635,-4.7854,-4.7858,-4.7862,-4.7824,-4.7818,-4.7812,-4.7806,-4.8049,-4.8064,-4.8079,-4.8299,0,0,-4.8127,-4.8134,0,0,0,0,0,0,0,0,-4.7338,-4.7369,-4.7626,-4.763,-4.7635,-4.7803,-4.7776,-4.8008,-4.7826,-4.7752,-4.781,-4.7803,-4.7977,-4.7998,-4.8056,-4.831,-4.8321,-4.8128,-4.8138,-4.8144,-4.8149,0,0,0,0,0,0,0,-4.7323,-4.7358,-4.771,-4.7629,-4.7635,-4.7627,-4.7651,-4.782,-4.7896,-4.7758,-4.7756,-4.7785,-4.7978,-4.8042,-4.8062,-4.8324,-4.8128,-4.8142,-4.8151,-4.8157,-4.8771,-4.8778,0,0,0,0,0,0,-4.7303,-4.7346,-4.7703,-4.7718,-4.7468,-4.764,-4.7668,-4.7755,-4.7894,-4.791,-4.779,-4.7782,-4.8018,-4.8044,-4.807,-4.8337,-4.8144,-4.8159,-4.8168,-4.8764,-4.8773,-4.878,0,0,0,0,0,0,-4.7293,-4.7335,-4.7693,-4.7531,-4.7576,-4.7655,-4.7753,-4.7763,-4.7826,-4.7918,-4.7932,-4.784,-4.8014,-4.8049,-4.8242,-4.8345,-4.8166,-4.818,-4.8756,-4.8767,-4.8776,-4.8872,0,0,0,0,0,0,-4.7279,-4.7332,-4.7415,-4.7533,-4.7585,-4.7861,-4.7759,-4.7772,-4.7853,-4.7845,-4.7969,-4.7984,-4.8012,-4.8219,-4.8258,-4.8364,-4.8192,-4.8747,-4.8761,-4.8773,-4.886,-4.8885,-4.8906,0,0,0,0,0,-4.7261,-4.7433,-4.742,-4.7463,-4.7691,-4.7867,-4.7897,-4.7925,-4.7861,-4.7947,-4.8006,-4.798,-4.8328,-4.824,-4.8283,-4.8394,-4.8741,-4.8757,-4.8772,-4.885,-4.888,-4.8905,0,0,0,0,0,0,-4.7325,-4.7449,-4.7435,-4.765,-4.7748,-4.786,-4.7968,-4.7956,-4.8074,-4.8062,-4.8093,-4.8121,-4.8318,-4.8375,-4.8275,-4.8614,-4.8525,-4.855,-4.857,-4.8599,-4.8621,-4.8604,-4.8205,0,0,0,0,0,-4.7364,-4.7496,-4.7597,-4.7776,-4.7826,-4.7889,-4.7967,-4.798,-4.8083,-4.8125,-4.8198,-4.83,-4.8432,-4.8518,-4.8645,-4.8868,-4.8895,-4.8966,-4.8989,-4.9007,-4.9029,-4.9152,-4.9185,-4.8832,-4.8832,-4.8831,0,0,-4.7446,-4.753,-4.7611,-4.7791,-4.7869,-4.8006,-4.7924,-4.8072,-4.8174,-4.8147,-4.8335,-4.8393,-4.8508,-4.8718,-4.8814,-4.8772,-4.9132,-4.9027,-4.9041,-4.9053,-4.9172,-4.9205,-4.9235,-4.8842,-4.884,-4.8839,0,0,-4.7666,-4.7742,-4.79,-4.798,-4.8098,-4.8139,-4.8177,-4.8292,-4.8329,-4.8517,-4.8501,-4.8622,-4.8849,-4.8932,-4.9004,-4.9256,-4.9237,-4.9296,-4.9415,-4.9535,-4.9563,-4.9588,-4.9679,-4.9711,-4.9317,-4.9318,-4.9318,0,-4.7753,-4.7958,-4.7983,-4.8134,-4.8214,-4.8196,-4.8357,-4.8433,-4.8587,-4.8643,-4.8594,-4.8879,-4.8955,-4.9184,-4.9246,-4.9304,-4.935,-4.9283,-4.9557,-4.9582,-4.9606,-4.9693,-4.9727,-4.9324,-4.9323,-4.9323,-4.9322,0,-4.8059,-4.8202,-4.8316,-4.8465,-4.8558,-4.8713,-4.8763,-4.8854,-4.8859,-4.8906,-4.9099,-4.9189,-4.9335,-4.939,-4.9397,-4.9621,-4.9591,-4.9549,-4.946,-4.9645,-4.9728,-4.9761,-4.9333,-4.9331,-4.9329,-4.9328,0,0,-4.8327,-4.8488,-4.853,-4.8597,-4.8727,-4.8838,-4.8992,-4.9134,-4.9212,-4.9319,-4.945,-4.9643,-4.9605,-4.9686,-4.9702,-4.9807,-5.0003,-4.9753,-4.9756,-4.9797,-5.0257,-5.0289,-5.0327,-4.999,-4.9997,-5.0002,-5.0248,0,-4.8559,-4.8832,-4.886,-4.9104,-4.9236,-4.9221,-4.9355,-4.945,-4.9497,-4.9617,-4.9669,-4.9806,-4.9744,-4.9794,-4.9897,-4.9957,-5.0096,-4.9939,-5.0114,-5.012,-5.0087,-5.037,-5.0404,-5.0632,-5.028,-5.0285,-5.0289,0,-4.8867,-4.8983,-4.924,-4.9352,-4.9409,-4.9529,-4.9662,-4.9776,-4.9883,-4.991,-5.0002,-5.0005,-5.0165,-5.0069,-5.0291,-5.0184,-5.0257,-5.0297,-5.0306,-5.0325,-5.0217,-5.0398,-5.0705,-5.074,-5.034,-5.0336,-5.0333,0,-4.9038,-4.9258,-4.9441,-4.9499,-4.9634,-4.9719,-4.9779,-4.988,-4.9964,-5.008,-5.0135,-5.0268,-5.0341,-5.0445,-5.0483,-5.041,-5.0704,-5.0611,-5.0732,-5.0731,-5.0796,-5.0791,-5.1121,-5.084,-5.084,-5.0839,-5.0838,0,-4.9296,-4.9454,-4.9519,-4.9632,-4.9809,-4.984,-5.0014,-5.0071,-5.0161,-5.0285,-5.0279,-5.0395,-5.0439,-5.0562,-5.0594,-5.0773,-5.0806,-5.0833,-5.084,-5.0835,-5.0832,-5.0884,-5.087,-5.0848,-5.0846,-5.0844,-5.0843,0,-4.9517,-4.9566,-4.9765,-4.9876,-4.9908,-5.0034,-5.0129,-5.0238,-5.0283,-5.044,-5.0479,-5.0551,-5.0696,-5.0745,-5.0921,-5.0942,-5.1152,-5.1144,-5.1116,-5.1117,-5.1236,-5.1225,-5.1612,-5.1665,-5.1348,-5.1351,-5.1353,0,-4.9679,-4.98,-4.9924,-5.0007,-5.007,-5.0203,-5.0288,-5.0323,-5.0413,-5.0544,-5.0638,-5.0782,-5.0899,-5.1133,-5.1201,-5.1336,-5.1332,-5.1459,-5.1353,-5.1344,-5.1336,-5.1329,-5.1342,-5.1479,-5.1482,-5.1485,-5.1487,0,-4.9961,-4.998,-5.0103,-5.0235,-5.0337,-5.0443,-5.0546,-5.0614,-5.0664,-5.0765,-5.0913,-5.1004,-5.1184,-5.1328,-5.1466,-5.1528,-5.1518,-5.152,-5.1555,-5.1552,-5.1531,-5.1546,-5.1171,-5.1511,-5.1509,-5.1507,-5.1506,-5.1505,-5.0159,-5.0267,-5.0371,-5.0509,-5.0589,-5.0685,-5.0794,-5.0852,-5.0977,-5.1126,-5.1139,-5.13,-5.1405,-5.1588,-5.1658,-5.1785,-5.1749,-5.18,-5.1813,-5.1826,-5.1836,-5.151,-5.181,-5.1809,-5.1808,-5.1808,-5.1807,0,-5.0443,-5.0509,-5.0635,-5.0779,-5.0887,-5.0866,-5.0978,-5.1071,-5.1212,-5.1311,-5.1426,-5.1598,-5.1737,-5.1816,-5.1956,-5.2043,-5.2041,-5.2078,-5.2073,-5.2088,-5.1859,-5.1815,-5.2077,-5.2077,-5.2077,-5.2077,-5.2077,-5.2077,-5.0603,-5.0785,-5.0816,-5.1037,-5.1103,-5.126,-5.1326,-5.1415,-5.1494,-5.1686,-5.1801,-5.1852,-5.1943,-5.209,-5.2217,-5.2237,-5.2289,-5.2331,-5.2347,-5.2132,-5.2104,-5.2078,-5.2037,-5.2341,-5.2342,-5.2566,-5.2568,-5.257]}]]